EST,Max TemperatureF,Mean TemperatureF,Min TemperatureF,Max Dew PointF,MeanDew PointF,Min DewpointF,Max Humidity, Mean Humidity, Min Humidity, Max Sea Level PressureIn, Mean Sea Level PressureIn, Min Sea Level PressureIn, Max VisibilityMiles, Mean VisibilityMiles, Min VisibilityMiles, Max Wind SpeedMPH, Mean Wind SpeedMPH, Max Gust SpeedMPH,PrecipitationIn, CloudCover, Events, WindDirDegrees
2012-11-1,56,50,45,40,38,37,80,63,51,29.79,29.73,29.69,10,10,10,14,8,22,0.00,2,,266
2012-11-2,56,50,44,43,36,30,84,59,37,29.91,29.83,29.77,10,10,10,14,9,23,0.00,1,,284
2012-11-3,51,47,43,39,34,32,77,61,48,30.07,30.01,29.91,10,10,10,10,5,21,0.00,1,,312
2012-11-4,51,48,44,45,41,36,93,78,65,30.10,30.03,29.96,10,10,1,9,3,,0.00,5,Rain,2
2012-11-5,50,48,45,42,36,34,77,65,56,30.11,30.03,29.94,10,10,10,14,8,22,0.00,5,Rain,360
2012-11-6,53,50,47,50,42,35,93,71,60,30.09,29.97,29.74,10,9,4,15,8,23,0.00,5,Rain,36
2012-11-7,52,46,41,50,43,38,96,88,76,29.84,29.77,29.72,10,8,3,17,11,24,0.00,8,Rain,333
2012-11-8,54,47,40,38,33,21,88,63,31,30.01,29.92,29.83,10,10,10,15,9,24,0.00,2,,299
2012-11-9,53,47,41,42,33,22,90,60,36,30.26,30.16,30.02,10,10,10,10,6,20,0.00,0,,303
2012-11-10,61,52,43,47,39,31,90,63,33,30.41,30.35,30.25,10,10,10,7,4,,0.00,0,,178
2012-11-11,66,58,49,56,51,46,96,79,49,30.50,30.46,30.41,10,9,3,7,2,,0.00,0,,119
2012-11-12,72,64,57,61,58,56,97,82,60,30.46,30.35,30.23,10,9,4,10,4,,0.00,0,,122
2012-11-13,64,56,47,62,53,45,95,91,86,30.35,30.26,30.18,10,9,4,16,7,29,0.00,6,Rain,356
2012-11-14,52,50,47,48,44,39,93,82,69,30.39,30.35,30.30,10,9,3,15,11,29,0.00,8,Rain,11
2012-11-15,57,52,48,50,48,43,91,82,76,30.30,30.23,30.18,10,9,7,14,9,22,0.00,4,Rain,24
2012-11-16,51,49,47,49,45,40,95,83,70,30.33,30.25,30.17,10,9,7,14,9,24,0.00,6,Rain,359
2012-11-17,56,52,49,50,47,41,85,78,73,30.42,30.38,30.32,10,10,7,15,10,26,0.00,4,,25
2012-11-18,59,57,55,54,52,51,90,84,78,30.36,30.31,30.22,7,6,4,15,12,30,0.00,5,Rain,40
2012-11-19,57,54,51,54,53,51,97,93,87,30.22,30.13,30.06,7,4,2,18,13,30,0.00,8,Rain,3
2012-11-20,54,52,50,52,49,46,97,88,83,30.08,30.05,30.04,10,7,2,14,9,22,0.00,6,,2
2012-11-21,55,52,50,50,48,43,92,84,75,30.10,30.06,30.02,10,9,7,13,9,24,0.00,4,,2
2012-11-22,54,52,50,50,48,44,92,86,78,30.12,30.09,30.04,10,7,5,17,11,29,0.00,7,,359
2012-11-23,58,52,46,49,46,42,97,83,63,30.09,29.98,29.80,10,8,1,10,5,,0.00,3,,270
2012-11-24,53,46,39,43,30,22,69,54,41,30.06,29.92,29.78,10,10,10,16,8,31,0.00,1,,324
2012-11-25,45,40,34,30,25,21,69,54,38,30.14,30.08,30.03,10,10,10,10,6,17,0.00,0,,274
2012-11-26,54,48,42,44,34,27,88,62,36,30.22,30.16,30.07,10,10,10,9,6,,0.00,0,,237
2012-11-27,60,52,45,46,42,35,93,71,42,30.21,30.15,30.07,10,10,7,8,4,17,0.00,3,Rain,220
2012-11-28,45,42,39,42,35,30,93,74,60,30.37,30.26,30.16,10,10,10,13,7,21,0.00,2,Rain,335
2012-11-29,49,44,39,38,34,31,85,69,49,30.48,30.41,30.35,10,10,10,6,3,,0.00,0,,24
2012-11-30,55,48,40,44,38,34,91,74,46,30.42,30.37,30.32,10,10,7,5,2,,0.00,0,,216